Location: Sibbertoft
(52.4361°N, 1.0300°W)
Time: 03:40:46
(UTC+00:00)

Envisat - Visible Passes

Search period start: 20 January 2019 00:00
Search period end: 30 January 2019 00:00
Orbit: 764 x 766 km, 98.2° (Epoch: 19 January)

Date Brightness Start Highest point End Pass type
(mag) Time Alt. Az. Time Alt. Az. Time Alt. Az.
20 Jan 5.5 06:45:35 10° NE 06:49:42 24° E 06:53:48 10° SE visible
20 Jan 3.0 18:05:33 10° SE 18:10:30 55° ENE 18:15:29 10° N visible
20 Jan 5.1 19:45:38 10° SSW 19:49:51 26° W 19:54:07 10° NW visible
21 Jan 6.2 06:10:20 10° ENE 06:12:27 12° E 06:14:32 10° ESE visible
21 Jan 3.7 17:29:35 10° ESE 17:33:59 30° ENE 17:38:24 10° N visible
21 Jan 3.9 19:07:54 10° S 19:12:50 50° W 19:17:47 10° NNW visible
22 Jan 4.7 07:10:44 10° NNE 07:15:29 38° E 07:20:12 10° SSE visible
22 Jan 2.9 18:30:54 10° SSE 18:35:59 86° ENE 18:41:08 10° NNW visible
22 Jan 5.7 20:12:32 10° SW 20:15:43 17° W 20:18:55 10° NW visible
23 Jan 5.8 06:34:39 10° NE 06:38:22 20° E 06:42:04 10° SE visible
23 Jan 3.2 17:54:31 10° SE 17:59:21 46° ENE 18:04:12 10° N visible
23 Jan 4.7 19:34:03 10° SSW 19:38:33 31° W 19:43:05 10° NNW visible
24 Jan 3.9 17:18:44 10° ESE 17:22:53 26° ENE 17:27:02 10° N visible
24 Jan 3.5 18:56:33 10° S 19:01:34 61° WSW 19:06:38 10° NNW visible
25 Jan 5.1 06:59:39 10° NNE 07:04:11 31° E 07:08:41 10° SSE visible
25 Jan 2.9 18:19:45 10° SSE 18:24:48 72° ENE 18:29:53 10° NNW visible
25 Jan 5.5 20:00:40 10° SW 20:04:22 20° W 20:08:05 10° NW visible
26 Jan 6.0 06:23:48 10° NE 06:27:01 17° E 06:30:12 10° SE visible
26 Jan 3.4 17:43:32 10° SE 17:48:13 38° ENE 17:52:54 10° N visible
26 Jan 4.4 19:22:32 10° SSW 19:27:15 38° W 19:32:00 10° NNW visible
27 Jan 3.2 18:45:16 10° S 18:50:21 74° WSW 18:55:28 10° NNW visible
27 Jan 6.0 20:28:12 10° WSW 20:30:17 12° W 20:32:24 10° WNW visible
28 Jan 5.5 06:48:37 10° NE 06:52:53 26° E 06:57:06 10° SSE visible
28 Jan 3.0 18:08:38 10° SSE 18:13:37 59° ENE 18:18:38 10° N visible
28 Jan 5.2 19:48:56 10° SW 19:53:02 24° W 19:57:09 10° NW visible
29 Jan 6.1 06:13:09 10° NE 06:15:38 13° E 06:18:07 10° ESE visible
29 Jan 3.7 17:32:36 10° SE 17:37:05 32° ENE 17:41:34 10° N visible
29 Jan 4.0 19:11:07 10° S 19:15:59 46° W 19:20:54 10° NNW visible
